Other Surface Observations
Issued by NWS

Home | Current Version | Previous Version | Text Only | Print | Product List | Glossary On
Versions: 1 2 3 4 5 6 7 8 9 10 11 12 13 14 15 16 17 18 19 20 21 22 23 24 25 26 27 28 29 30 31 32 33 34 35 36 37 38 39 40 41 42 43 44 45 46 47 48 49 50
000
SXUS52 KTAE 060918
OSOTAE
OSOTAE
North Florida/South Alabama/Southwest Georgia Weather Roundup
National Weather Service Tallahassee Florida
500 AM EDT FRI MAY 06 2016

Note: "fair" indicates few or no clouds below 12,000 feet with no
significant weather and/or obstructions to visibility.

!FLZ017-115-028-034-025-061000
...North Florida...

CITY           SKY/WX    TMP DP  RH WIND       PRES   REMARKS
TALLAHASSEE    CLEAR     55  45  68 NW6       29.89R
APALACHICOLA   CLEAR     57  46  66 N9        29.88R
PERRY          CLEAR     52  44  75 NW3       29.89R
CROSS CITY       N/A     49  42  77 CALM      29.87R
JACKSONVILLE   CLEAR     48  44  86 W5        29.83S
$$

!FLZ112-006-005-002-011-061000
...Florida Panhandle...

CITY           SKY/WX    TMP DP  RH WIND       PRES   REMARKS
MARIANNA       CLEAR     53  45  74 CALM      29.91S
BONIFAY        FAIR      53  42  66 NW3       29.93R
PANAMA CITY NW FAIR      53  44  71 N7        29.91R
TYNDALL AFB    CLEAR     58  45  61 NE8       29.90R
TYND DRONE APT FAIR      57  47  69 N12       29.91R
DE FUNIAK SPR  FAIR      52  43  71 N5        29.94R
EGLIN AFB      CLEAR     55  42  62 N9        29.93R
DESTIN         CLEAR     61  46  57 N13G20    29.92R
HURLBURT       CLEAR     52  43  71 N9        29.92R
CRESTVIEW      CLEAR     52  42  69 N3        29.95R
PENSACOLA      CLEAR     59  43  55 N10       29.93S
$$

!ALZ063-066-061000
...South Alabama...

CITY           SKY/WX    TMP DP  RH WIND       PRES   REMARKS
DOTHAN         CLEAR     50  41  71 NW5       29.95R
OZARK CAIRNS   CLEAR     50  42  73 NW5       29.92S
FT RUCKER HELI NOT AVBL
RUCKER HELI 3  FAIR      49  43  81 NW3       29.93S
RUCKER HELI 2  NOT AVBL
FLORALA APT    CLEAR     50  42  74 CALM      29.95R
ANDALUSIA      CLEAR     53  43  68 CALM      29.94R
TROY           CLEAR     48  42  80 N3        29.94R
EUFALA         FAIR      51  40  65 NW5       29.90R
MOBILE         CLEAR     54  44  69 N8        29.96S
$$

!GAZ120>161-061000
...Southwest and South Central Georgia...

CITY           SKY/WX    TMP DP  RH WIND       PRES   REMARKS
THOMASVILLE    FAIR      50  43  76 NW5       29.89S
BAINBRIDGE     CLEAR     52  45  76 CALM      29.90S
MOODY AFB      CLEAR     50  43  77 W5        29.85S
VALDOSTA       CLEAR     49  43  80 VRB3      29.87R
MOULTRIE       CLEAR     52  41  66 CALM      29.88S
BLAKELY        CLEAR     50  46  87 CALM      29.91S
ALBANY         CLEAR     48  41  76 W5        29.90S
TIFTON         FAIR      49  42  75 NW6       29.86S
FITZGERALD     FAIR      50  42  73 NW5       29.88R
CORDELE        FAIR      50  41  71 CALM      29.88R
AMERICUS       FAIR      46  37  71 NW5       29.89S WCI  44
HOMERVILLE     FAIR      46  45  93 CALM      29.86R
$$

!GMZ750-755-770-775-061000
...Coastal and Buoy Obs...

STATION/POSITION TIME  TEMP    WIND        PRES    VSBY  WAVE
                       AIR SEA DIR/SP/G                  HT/PER
                 (UTC) (F)     (DEG/KT/KT) (MB)    (MI)  (FT/S)
KEATON BEACH     0900   53      20/  5/  6 1011.4R
CEDAR KEY        0900   61      20/  7/ 12 1011.1R
C TOWER          0900   65      10/ 21/ 23 1012.0R
APALACHICOLA BUO 0850   71 73  340/ 14/ 16 1011.1R         5/ 6
PANAMA CITY BUOY 0850   72 77   10/ 12/ 16 1012.1S         5/ 6
MOBILE BUOY      0900   70 74   10/ 16/ 21 1013.5R
ORANGE BCH AL BU 0850   66 74   10/ 17/ 23 1012.6S         3/ 4
$$




USA.gov is the U.S. government's official web portal to all federal, state and local government web resources and services.